AA7MO Weather Reports


time (UTC)temp
F
wind
direction
speed
knots
gust
knots
rain 1hr
in
rain 24hr
in
rain mn
in
humidity
%
barometer
mb
20260505140504 76 114 2.6 7.8 0.00 0.00 0.00 62 1016.0
20260505125004 70 95 0.9 2.6 0.00 0.00 0.00 79 1015.6
20260505124503 69 71 0.9 2.6 0.00 0.00 0.00 80 1015.6
20260505124004 68 87 1.7 2.6 0.00 0.00 0.00 82 1015.6
20260505123503 67 86 1.7 2.6 0.00 0.00 0.00 85 1015.6
20260505123004 66 80 0.0 1.7 0.00 0.00 0.00 89 1015.7
20260505122504 65 80 0.0 1.7 0.00 0.00 0.00 90 1015.6
20260505122004 64 113 0.9 1.7 0.00 0.00 0.00 90 1015.7
20260505121505 63 174 0.9 1.7 0.00 0.00 0.00 91 1015.7
20260505121004 63 238 0.0 0.9 0.00 0.00 0.00 93 1015.7
20260505120504 62 238 0.0 0.0 0.00 0.00 0.00 93 1015.6
20260505115504 60 238 0.0 0.0 0.00 0.00 0.00 93 1015.5
20260505115003 59 238 0.0 0.0 0.00 0.00 0.00 93 1015.3
20260505114003 58 238 0.0 0.0 0.00 0.00 0.00 93 1015.4
20260505113504 57 238 0.0 0.0 0.00 0.00 0.00 93 1015.4
20260505113005 57 238 0.0 0.0 0.00 0.00 0.00 93 1015.5
20260505112504 57 238 0.0 0.9 0.00 0.00 0.00 93 1015.4
20260505112004 57 238 0.0 0.9 0.00 0.00 0.00 93 1015.4
20260505111504 57 238 0.0 0.0 0.00 0.00 0.00 92 1015.4
20260505111005 57 238 0.0 0.0 0.00 0.00 0.00 92 1015.2
20260505102004 57 240 0.0 0.9 0.00 0.00 0.00 92 1014.8
20260505101504 57 240 0.0 0.0 0.00 0.00 0.00 92 1014.7
20260505101006 57 240 0.0 0.0 0.00 0.00 0.00 92 1014.6
20260505100506 57 240 0.0 0.0 0.00 0.00 0.00 92 1014.6
20260505100004 57 240 0.0 0.0 0.00 0.00 0.00 92 1014.6
20260505095004 58 240 0.0 0.0 0.00 0.00 0.00 92 1014.6
20260505094503 58 240 0.0 0.0 0.00 0.00 0.00 92 1014.6
20260505094005 58 240 0.0 0.9 0.00 0.00 0.00 92 1014.5
20260505093503 58 240 0.0 1.7 0.00 0.00 0.00 92 1014.6
20260505092004 58 90 0.0 0.0 0.00 0.00 0.00 92 1014.2
20260505091503 58 90 0.0 0.0 0.00 0.00 0.00 92 1014.2
20260505091004 58 90 0.0 0.0 0.00 0.00 0.00 92 1014.2
20260505090504 58 90 0.0 0.0 0.00 0.00 0.00 92 1014.1
20260505090004 58 90 0.0 0.0 0.00 0.00 0.00 92 1014.1
20260505085503 58 90 0.0 0.0 0.00 0.00 0.00 92 1014.1
20260505085004 58 90 0.0 0.0 0.00 0.00 0.00 92 1014.1
20260505084504 58 90 0.0 0.0 0.00 0.00 0.00 92 1014.1
20260505084004 58 90 0.0 0.0 0.00 0.00 0.00 91 1014.1
20260505083503 58 90 0.0 0.0 0.00 0.00 0.00 91 1014.1
20260505083004 58 90 0.0 0.0 0.00 0.00 0.00 91 1014.0
20260505082504 58 90 0.0 0.0 0.00 0.00 0.00 91 1014.0
20260505082004 58 90 0.0 0.0 0.00 0.00 0.00 91 1014.0
20260505081504 58 90 0.0 0.0 0.00 0.00 0.00 91 1014.0
20260505081004 59 90 0.0 0.0 0.00 0.00 0.00 91 1013.9
20260505080505 59 90 0.0 0.0 0.00 0.00 0.00 91 1013.8
20260505075003 59 90 0.0 0.0 0.00 0.00 0.00 91 1014.1
20260505074503 59 90 0.0 0.0 0.00 0.00 0.00 91 1014.1
20260505074005 59 90 0.0 0.9 0.00 0.00 0.00 91 1014.1
20260505073503 59 90 0.0 0.9 0.00 0.00 0.00 90 1014.2
20260505073004 59 90 0.0 0.9 0.00 0.00 0.00 90 1014.2
20260505072004 59 90 0.0 0.0 0.00 0.00 0.00 90 1014.3
20260505071503 59 90 0.0 0.0 0.00 0.00 0.00 90 1014.3
20260505071004 59 90 0.0 0.0 0.00 0.00 0.00 90 1014.3
20260505070503 59 90 0.0 0.0 0.00 0.00 0.00 90 1014.5
20260505065503 59 90 0.0 0.0 0.00 0.00 0.00 89 1014.5
20260505065004 59 90 0.0 0.0 0.00 0.00 0.00 89 1014.5
20260505064503 59 90 0.0 0.0 0.00 0.00 0.00 89 1014.5
20260505064004 60 90 0.0 0.0 0.00 0.00 0.00 89 1014.5
20260505063504 60 90 0.0 0.0 0.00 0.00 0.00 89 1014.6
20260505063003 60 90 0.0 0.0 0.00 0.00 0.00 89 1014.6
20260505062504 60 90 0.0 0.0 0.00 0.00 0.00 89 1014.6
20260505061504 60 90 0.0 0.0 0.00 0.00 0.00 88 1014.8
20260505061004 60 90 0.0 0.0 0.00 0.00 0.00 88 1014.9
20260505060505 60 90 0.0 0.0 0.00 0.00 0.00 88 1015.0
20260505060005 60 90 0.0 0.0 0.00 0.00 0.00 87 1015.0
20260505055503 60 90 0.0 0.0 0.00 0.00 0.00 87 1014.9
20260505055004 61 90 0.0 0.0 0.00 0.00 0.00 87 1014.9
20260505054504 61 90 0.0 0.0 0.00 0.00 0.00 87 1015.0
20260505054003 61 90 0.0 0.0 0.00 0.00 0.00 87 1015.1
20260505053504 61 90 0.0 0.0 0.00 0.00 0.00 86 1015.1
20260505053005 61 90 0.0 0.0 0.00 0.00 0.00 86 1015.3
20260505052504 61 90 0.0 0.0 0.00 0.00 0.00 85 1015.3
20260505052006 61 90 0.0 0.0 0.00 0.00 0.00 85 1015.3
20260505051505 62 90 0.0 0.0 0.00 0.00 0.00 85 1015.4
20260505051004 62 90 0.0 0.0 0.00 0.00 0.00 85 1015.5
20260505050505 62 90 0.0 0.0 0.00 0.00 0.00 85 1015.6
20260505041503 65 90 0.0 0.0 0.00 0.00 0.00 77 1015.9
20260505041004 65 90 0.0 0.9 0.00 0.00 0.00 77 1016.0
20260505040504 65 90 0.0 0.9 0.00 0.00 0.00 76 1016.0
20260505040005 65 90 0.0 0.9 0.00 0.00 0.00 75 1016.0
20260505035504 66 90 0.0 0.9 0.00 0.00 0.00 74 1015.8
20260505035005 66 90 0.0 0.9 0.00 0.00 0.00 74 1015.8
20260505034503 66 90 0.0 0.0 0.00 0.00 0.00 73 1015.8
20260505034003 66 90 0.0 0.9 0.00 0.00 0.00 72 1015.8
20260505033504 67 90 0.0 1.7 0.00 0.00 0.00 73 1015.8
20260505033004 67 74 0.9 2.6 0.00 0.00 0.00 73 1015.8
20260505032004 67 72 0.9 2.6 0.00 0.00 0.00 72 1015.6
20260505031004 67 91 0.9 2.6 0.00 0.00 0.00 72 1015.7
20260505030503 67 93 0.9 6.1 0.00 0.00 0.00 72 1015.7
20260505030004 68 76 0.0 6.1 0.00 0.00 0.00 72 1015.7
20260505025004 68 94 1.7 6.1 0.00 0.00 0.00 72 1015.7
20260505024504 68 72 0.9 2.6 0.00 0.00 0.00 71 1015.6
20260505024004 68 98 1.7 4.3 0.00 0.00 0.00 71 1015.5
20260505023504 68 88 1.7 4.3 0.00 0.00 0.00 71 1015.5
20260505023004 68 82 1.7 4.3 0.00 0.00 0.00 71 1015.5
20260505022003 68 75 1.7 2.6 0.00 0.00 0.00 70 1015.6
20260505021503 68 73 0.9 4.3 0.00 0.00 0.00 70 1015.6
20260505021004 68 85 1.7 4.3 0.00 0.00 0.00 70 1015.6
20260505020504 68 85 1.7 2.6 0.00 0.00 0.00 70 1015.5
20260505020004 69 98 0.9 2.6 0.00 0.00 0.00 70 1015.5
20260505015504 69 72 0.9 2.6 0.00 0.00 0.00 70 1015.5
20260505015004 69 74 1.7 5.2 0.00 0.00 0.00 70 1015.5
20260505014503 69 91 0.9 5.2 0.00 0.00 0.00 69 1015.5
20260505014003 69 82 1.7 5.2 0.00 0.00 0.00 69 1015.5
20260505013504 69 39 0.0 6.1 0.00 0.00 0.00 69 1015.5
20260505013003 69 84 1.7 6.1 0.00 0.00 0.00 68 1015.5
20260505012503 69 88 4.3 6.1 0.00 0.00 0.00 68 1015.4
20260505012003 70 74 0.9 5.2 0.00 0.00 0.00 68 1015.4
20260505011504 70 114 1.7 6.1 0.00 0.00 0.00 67 1015.4
20260505010504 70 78 1.7 6.1 0.00 0.00 0.00 67 1015.3
20260505010004 70 96 2.6 6.1 0.00 0.00 0.00 67 1015.2
20260505005004 71 89 1.7 7.8 0.00 0.00 0.00 65 1015.1
20260505004503 71 93 2.6 7.8 0.00 0.00 0.00 65 1015.1
20260505004004 71 95 2.6 7.8 0.00 0.00 0.00 65 1015.1
20260505003505 71 95 1.7 7.0 0.00 0.00 0.00 64 1015.0
20260505003004 71 93 2.6 7.0 0.00 0.00 0.00 64 1015.0
20260505002505 71 89 1.7 6.1 0.00 0.00 0.00 64 1015.0
20260505002005 72 82 2.6 6.1 0.00 0.00 0.00 63 1015.0
20260505001508 72 82 2.6 5.2 0.00 0.00 0.00 63 1014.9
20260505001004 72 81 0.9 5.2 0.00 0.00 0.00 62 1014.9
20260505000504 72 85 1.7 7.0 0.00 0.00 0.00 62 1014.9
20260505000003 73 100 1.7 10.4 0.00 0.00 0.00 61 1014.8
20260504235505 73 88 2.6 10.4 0.00 0.00 0.00 61 1014.7
20260504235004 73 81 2.6 10.4 0.00 0.00 0.00 61 1014.6
20260504234506 73 86 5.2 8.7 0.00 0.00 0.00 60 1014.4
20260504233004 74 97 2.6 10.4 0.00 0.00 0.00 59 1014.3
20260504232503 74 124 3.5 10.4 0.00 0.00 0.00 59 1014.3
20260504232004 74 111 1.7 10.4 0.00 0.00 0.00 58 1014.3
20260504231505 75 85 5.2 10.4 0.00 0.00 0.00 58 1014.3
20260504231004 75 90 2.6 10.4 0.00 0.00 0.00 58 1014.2
20260504230504 75 92 4.3 10.4 0.00 0.00 0.00 57 1014.0
20260504230005 75 100 2.6 10.4 0.00 0.00 0.00 57 1014.1
20260504225504 76 80 5.2 10.4 0.00 0.00 0.00 56 1014.1
20260504225004 76 47 1.7 10.4 0.00 0.00 0.00 56 1014.1
20260504224504 76 89 2.6 7.8 0.00 0.00 0.00 56 1014.2
20260504224004 76 114 3.5 10.4 0.00 0.00 0.00 55 1014.2
20260504223504 76 80 4.3 10.4 0.00 0.00 0.00 54 1014.1
20260504223004 76 92 3.5 8.7 0.00 0.00 0.00 54 1014.2
20260504221504 77 95 5.2 11.3 0.00 0.00 0.00 52 1014.3
20260504221004 77 107 2.6 10.4 0.00 0.00 0.00 51 1014.3
20260504220504 77 98 2.6 8.7 0.00 0.00 0.00 52 1014.3
20260504220004 77 116 4.3 11.3 0.00 0.00 0.00 51 1014.3
20260504215505 78 96 2.6 11.3 0.00 0.00 0.00 51 1014.3
20260504215003 78 80 5.2 10.4 0.00 0.00 0.00 50 1014.3
20260504214004 78 102 3.5 8.7 0.00 0.00 0.00 50 1014.2
20260504213504 78 105 4.3 8.7 0.00 0.00 0.00 48 1014.2
20260504212504 79 119 4.3 7.8 0.00 0.00 0.00 48 1014.2
20260504212004 79 94 2.6 8.7 0.00 0.00 0.00 46 1014.4
20260504211504 79 130 3.5 12.2 0.00 0.00 0.00 47 1014.4
20260504210503 79 93 5.2 8.7 0.00 0.00 0.00 47 1014.4
20260504210004 80 104 4.3 8.7 0.00 0.00 0.00 45 1014.5
20260504205004 80 121 1.7 8.7 0.00 0.00 0.00 45 1014.6
20260504204504 80 72 1.7 8.7 0.00 0.00 0.00 43 1014.5
20260504204004 80 119 4.3 8.7 0.00 0.00 0.00 44 1014.5
20260504203504 80 107 3.5 8.7 0.00 0.00 0.00 42 1014.6
20260504203004 80 113 4.3 10.4 0.00 0.00 0.00 44 1014.7
20260504202004 80 124 4.3 10.4 0.00 0.00 0.00 44 1014.7
20260504201504 80 113 3.5 10.4 0.00 0.00 0.00 44 1014.7
20260504201005 80 131 4.3 10.4 0.00 0.00 0.00 45 1014.7
20260504200504 79 112 3.5 10.4 0.00 0.00 0.00 43 1014.7
20260504195504 80 101 4.3 10.4 0.00 0.00 0.00 42 1014.8
20260504195004 80 75 3.5 10.4 0.00 0.00 0.00 42 1014.9
20260504194504 81 114 3.5 10.4 0.00 0.00 0.00 40 1015.0
20260504194004 81 102 3.5 7.8 0.00 0.00 0.00 41 1015.1
20260504193504 81 134 3.5 10.4 0.00 0.00 0.00 40 1015.2
20260504193004 81 81 2.6 10.4 0.00 0.00 0.00 40 1015.2
20260504192504 81 141 3.5 8.7 0.00 0.00 0.00 39 1015.2
20260504191504 81 65 1.7 11.3 0.00 0.00 0.00 40 1015.3
20260504191005 81 145 4.3 11.3 0.00 0.00 0.00 39 1015.3
20260504190504 80 154 2.6 11.3 0.00 0.00 0.00 40 1015.4
20260504190004 80 171 2.6 11.3 0.00 0.00 0.00 39 1015.5
20260504185504 80 132 5.2 11.3 0.00 0.00 0.00 40 1015.5
20260504185004 80 131 3.5 10.4 0.00 0.00 0.00 42 1015.6
20260504184504 80 44 4.3 10.4 0.00 0.00 0.00 41 1015.6
20260504184005 81 89 5.2 10.4 0.00 0.00 0.00 41 1015.7
20260504183503 80 106 2.6 7.0 0.00 0.00 0.00 40 1015.8
20260504183004 80 92 0.9 7.8 0.00 0.00 0.00 41 1015.9
20260504182504 80 309 2.6 7.8 0.00 0.00 0.00 39 1015.9
20260504182004 80 93 4.3 7.8 0.00 0.00 0.00 40 1015.9
20260504181505 79 99 2.6 8.7 0.00 0.00 0.00 41 1016.0
20260504181004 79 113 4.3 8.7 0.00 0.00 0.00 37 1015.9
20260504180504 80 111 3.5 8.7 0.00 0.00 0.00 38 1016.0
20260504180003 80 112 2.6 8.7 0.00 0.00 0.00 37 1015.9
20260504175504 80 63 2.6 7.8 0.00 0.00 0.00 37 1016.0
20260504175004 80 183 2.6 7.8 0.00 0.00 0.00 34 1016.0
20260504174504 80 106 1.7 7.8 0.00 0.00 0.00 36 1016.2
20260504174003 80 141 4.3 7.8 0.00 0.00 0.00 34 1016.2
20260504173504 80 115 2.6 7.0 0.00 0.00 0.00 35 1016.3
20260504172503 79 106 3.5 7.0 0.00 0.00 0.00 33 1016.4
20260504172004 79 159 1.7 7.8 0.00 0.00 0.00 34 1016.4
20260504171504 79 93 4.3 8.7 0.00 0.00 0.00 33 1016.4
20260504171004 79 99 4.3 8.7 0.00 0.00 0.00 37 1016.3
20260504170504 78 162 2.6 7.8 0.00 0.00 0.00 38 1016.5
20260504151004 76 48 1.7 5.2 0.00 0.00 0.00 44 1017.2
20260504150504 76 119 1.7 5.2 0.00 0.00 0.00 44 1017.2